星链-1321 (STARLINK-1321 )

导读 | 豆包AI

STARLINK-1321是美国太空探索技术公司SpaceX星链星座中的一颗卫星,于2020年4月22日发射入轨,属于星链项目早期批次组网卫星。星链系统旨在为全球提供高速低延迟互联网宽带服务,这颗卫星承担了星座初期的覆盖与测试任务,推进了星链全球互联网络的构建。

基本信息
目录编号:
45573
目录名称:
STARLINK-1321
国际标识:
2020-025AU
轨道中心:
EARTH
卫星名称:
星链-1321
卫星全名:
星链-1321 (STARLINK-1321 )
卫星状态:
在轨 (已飞行2173 天)
发射日期:
2020-04-22 UTC
国别 :
美国 (US)
星等 :
--
轨道信息
数据来源 国际轨道数据
星历时间: 2026-04-04T02:25:31+0800
9小时前
查看轨道信息
半长轴: 6786.657km
偏心率: 0.0003315
轨道倾角: 53.048°
近地点辐角 171.593°
升交点赤经 298.055°
平近点角 188.514°
近地点: 406.27km
远地点: 410.77km
周期: 92.735分钟
每日圈数: 15.528123
详细信息
固有亮度:
5
最大亮度:
2.5
卫星平台:
Starlink V1.0
覆盖范围:
全球
运营商:
太空探索技术公司
运营商所在国:
美国
制造商(研发单位):
太空探索技术公司
制造商所在国:
美国
使用方式:
暂无
卫星简介
星链(Starlink)计划是由太空探索技术公司(SpaceX)提出的一个巨型低轨卫星互联网星座项目,计划在2019年至2024年间在太空搭建由约1.2万颗卫星组成的“星链”网络,其中1584颗将部署在地球上空550千米处的近地轨道,并从2020年开始工作。该卫星仍在工作。
2D轨道图
3D轨道图
轨道高度分析图
轨道倾角分析图
轨道综合分析图
查看轨道综合分析图